period_start,C,m1,H,J0,J1,J2,J3,J4,J5,JA,JB,JC,JD,JJ,JK,JN,#
2014-12-07 00:02:32,0.11,4.51,0.00,18.62,23.29,26.63,4.95,27.80,1029.77,2044.93,1987.03,2298.98,2492.09,350.23,357.81,20.65,0000 0000 0000 0000 000000
2014-12-07 00:07:34,0.13,4.51,0.00,18.52,23.28,26.59,4.91,27.74,1029.79,2044.94,1986.18,2298.27,2491.84,349.41,356.90,20.68,0000 0000 0000 0000 000000
2014-12-07 00:12:35,0.05,4.51,0.00,18.56,23.27,26.58,4.99,27.96,1029.79,2044.95,1985.90,2297.96,2490.94,350.14,357.57,20.71,0000 0000 0000 0000 000000
2014-12-07 00:17:36,0.17,4.52,0.00,18.61,23.27,26.60,4.88,27.80,1029.76,2044.95,1985.04,2297.14,2490.07,349.72,357.14,20.74,0000 0000 0000 0000 000000
2014-12-07 00:22:37,0.15,4.52,0.00,18.53,23.27,26.58,4.91,27.85,1029.66,2044.95,1984.17,2296.57,2489.33,349.65,357.43,20.77,0000 0000 0000 0000 000000
2014-12-07 00:27:39,0.13,4.52,0.00,18.53,23.27,26.54,5.07,27.99,1029.42,2044.95,1983.26,2295.87,2488.50,350.75,358.25,20.80,0000 0000 0000 0000 000000
2014-12-07 00:32:40,0.16,4.53,0.00,18.58,23.27,26.57,4.89,27.87,1029.40,2044.96,1982.29,2295.04,2487.71,349.68,357.18,20.83,0000 0000 0000 0000 000000
2014-12-07 00:37:41,0.17,4.53,0.00,18.50,23.27,26.56,4.90,27.95,1029.35,2044.94,1981.20,2294.19,2486.79,349.94,357.12,20.86,0000 0000 0000 0000 000000
2014-12-07 00:42:42,0.16,4.54,0.00,18.61,23.27,26.57,4.94,27.83,1029.33,2044.91,1980.02,2293.29,2485.96,350.50,357.75,20.89,0000 0000 0000 0000 000000
2014-12-07 00:47:44,0.16,4.54,0.00,18.56,23.26,26.58,4.85,27.84,1029.31,2044.97,1979.00,2292.64,2485.08,349.88,357.14,20.91,0000 0000 0000 0000 000000
2014-12-07 00:52:45,0.15,4.55,0.00,18.57,23.25,26.56,5.02,27.82,1029.31,2044.97,1977.98,2291.84,2484.24,350.14,357.58,20.94,0000 0000 0000 0000 000000
2014-12-07 00:57:46,0.16,4.55,0.00,18.61,23.25,26.54,4.99,27.90,1029.30,2044.98,1976.95,2291.04,2483.37,350.23,357.66,20.97,0000 0000 0000 0000 000000
2014-12-07 01:02:48,0.15,4.56,0.00,18.54,23.25,26.55,4.95,27.89,1029.21,2044.97,1975.93,2290.24,2482.72,350.13,357.61,21.00,0000 0000 0000 0000 000000
2014-12-07 01:07:49,0.18,4.56,0.00,18.59,23.24,26.53,4.86,27.84,1028.90,2044.98,1974.81,2289.50,2481.82,349.86,356.94,21.03,0000 0000 0000 0000 000000
2014-12-07 01:12:51,0.11,4.57,0.00,18.56,23.24,26.56,4.91,27.85,1028.90,2044.98,1973.94,2288.82,2480.91,349.81,357.14,21.06,0000 0000 0000 0000 000000
2014-12-07 01:17:52,0.15,4.57,0.00,18.48,23.24,26.54,4.97,27.87,1028.85,2044.98,1972.96,2288.02,2480.05,350.29,357.72,21.09,0000 0000 0000 0000 000000
2014-12-07 01:22:54,0.18,4.58,0.00,18.58,23.24,26.53,4.97,27.98,1028.86,2044.99,1971.92,2287.28,2479.30,349.73,356.93,21.12,0000 0000 0000 0000 000000
2014-12-07 01:27:55,0.16,4.58,0.00,18.59,23.24,26.53,5.01,27.85,1028.84,2044.97,1971.05,2286.51,2478.35,350.40,357.69,21.15,0000 0000 0000 0000 000000
2014-12-07 01:32:56,0.11,4.58,0.00,18.45,23.24,26.53,4.96,27.76,1028.86,2044.98,1970.27,2285.97,2477.45,350.24,357.51,21.18,0000 0000 0000 0000 000000
2014-12-07 01:37:57,0.14,4.59,0.00,18.56,23.24,26.53,4.93,27.87,1028.83,2044.97,1969.36,2285.17,2476.83,349.65,356.70,21.21,0000 0000 0000 0000 000000
2014-12-07 01:42:58,0.17,4.59,0.00,18.53,23.24,26.53,4.84,27.95,1028.80,2044.98,1968.15,2284.34,2476.04,349.82,357.12,21.24,0000 0000 0000 0000 000000
2014-12-07 01:48:00,0.13,4.60,0.00,18.42,23.24,26.54,5.02,27.80,1028.80,2044.98,1967.26,2283.78,2475.31,350.16,357.48,21.27,0000 0000 0000 0000 000000
2014-12-07 01:53:01,0.14,4.60,0.00,18.56,23.24,26.56,5.04,27.93,1028.81,2044.98,1966.45,2283.04,2474.43,350.64,357.72,21.30,0000 0000 0000 0000 000000
2014-12-07 01:58:03,0.13,4.61,0.00,18.53,23.23,26.55,4.97,27.83,1028.82,2044.98,1965.64,2282.36,2473.84,350.04,357.38,21.33,0000 0000 0000 0000 000000
2014-12-07 02:03:04,0.08,4.61,0.00,18.50,23.22,26.54,4.95,27.88,1028.78,2044.97,1964.87,2281.93,2473.05,349.88,357.09,21.35,0000 0000 0000 0000 000000
2014-12-07 02:08:05,0.15,4.61,0.00,18.57,23.22,26.51,4.92,27.84,1028.75,2044.99,1964.03,2281.15,2472.42,349.35,356.39,21.38,0000 0000 0000 0000 000000
2014-12-07 02:13:06,0.13,4.62,0.00,18.50,23.22,26.52,5.00,27.94,1028.65,2044.97,1963.15,2280.63,2471.75,350.45,357.87,21.41,0000 0000 0000 0000 000000
2014-12-07 02:18:08,0.11,4.62,0.00,18.57,23.22,26.52,5.03,27.93,1028.60,2044.97,1962.46,2280.01,2471.01,350.79,358.21,21.44,0000 0000 0000 0000 000000
2014-12-07 02:23:09,0.16,4.62,0.00,18.58,23.22,26.55,4.94,27.95,1028.59,2044.98,1961.62,2279.33,2470.24,349.68,356.63,21.47,0000 0000 0000 0000 000000
2014-12-07 02:28:11,0.07,4.63,0.00,18.46,23.22,26.53,4.98,27.90,1028.42,2044.98,1960.75,2278.90,2469.87,349.99,357.02,21.50,0000 0000 0000 0000 000000
2014-12-07 02:33:12,0.16,4.63,0.00,18.56,23.21,26.54,4.92,27.88,1028.34,2044.99,1959.84,2278.08,2469.06,349.73,356.92,21.53,0000 0000 0000 0000 000000
2014-12-07 02:38:13,0.17,4.64,0.00,18.56,23.20,26.55,4.90,27.87,1028.34,2044.97,1958.78,2277.46,2468.42,349.70,356.78,21.56,0000 0000 0000 0000 000000
2014-12-07 02:43:14,0.06,4.64,0.00,18.50,23.20,26.51,4.93,27.83,1028.33,2044.98,1957.98,2276.96,2467.88,349.97,357.09,21.59,0000 0000 0000 0000 000000
2014-12-07 02:48:16,0.17,4.65,0.00,18.55,23.19,26.50,4.97,27.90,1028.31,2044.99,1957.11,2276.14,2467.07,349.75,356.88,21.62,0000 0000 0000 0000 000000
2014-12-07 02:53:17,0.14,4.65,0.00,18.45,23.19,26.52,4.82,27.83,1028.19,2044.98,1956.51,2275.69,2466.19,349.33,356.04,21.65,0000 0000 0000 0000 000000
2014-12-07 02:58:18,0.11,4.65,0.00,18.46,23.19,26.49,4.90,28.02,1028.14,2044.98,1955.76,2275.00,2465.35,349.99,357.03,21.68,0000 0000 0000 0000 000000
2014-12-07 03:03:20,0.16,4.66,0.00,18.57,23.19,26.49,4.92,27.92,1027.94,2044.99,1954.81,2274.20,2464.71,349.90,356.74,21.71,0000 0000 0000 0000 000000
2014-12-07 03:08:21,0.12,4.66,0.00,18.49,23.19,26.50,4.89,27.79,1027.92,2044.99,1953.89,2273.63,2463.96,349.74,356.63,21.74,0000 0000 0000 0000 000000
2014-12-07 03:13:22,0.12,4.67,0.00,18.54,23.19,26.51,4.95,27.89,1028.16,2044.98,1952.94,2272.95,2463.08,349.91,356.73,21.77,0000 0000 0000 0000 000000
2014-12-07 03:18:23,0.18,4.67,0.00,18.47,23.19,26.48,4.94,28.01,1028.24,2044.99,1952.01,2272.10,2462.21,350.38,357.51,21.79,0000 0000 0000 0000 000000
2014-12-07 03:23:24,0.18,4.67,0.00,18.51,23.19,26.49,4.89,27.67,1028.12,2044.98,1950.91,2271.43,2461.41,350.35,357.37,21.82,0000 0000 0000 0000 000000
2014-12-07 03:28:26,0.12,4.68,0.00,18.51,23.19,26.51,4.96,27.87,1028.05,2044.98,1949.95,2270.72,2460.74,349.87,356.80,21.85,0000 0000 0000 0000 000000
2014-12-07 03:33:27,0.15,4.68,0.00,18.49,23.19,26.50,4.92,27.77,1027.86,2044.98,1948.82,2269.96,2460.01,349.81,356.72,21.88,0000 0000 0000 0000 000000
2014-12-07 03:38:28,0.18,4.69,0.00,18.52,23.18,26.50,4.87,27.98,1027.85,2044.99,1947.73,2269.10,2459.21,350.13,356.88,21.91,0000 0000 0000 0000 000000
2014-12-07 03:43:30,0.14,4.69,0.00,18.39,23.17,26.49,4.87,27.88,1027.85,2044.99,1946.88,2268.40,2458.53,349.47,356.61,21.94,0000 0000 0000 0000 000000
2014-12-07 03:48:31,0.09,4.70,0.00,18.50,23.17,26.47,4.95,27.98,1027.87,2044.99,1945.92,2267.94,2457.97,350.13,356.77,21.97,0000 0000 0000 0000 000000
2014-12-07 03:53:32,0.16,4.70,0.00,18.49,23.17,26.49,4.98,28.01,1027.87,2044.99,1945.06,2267.16,2457.20,350.55,357.45,22.00,0000 0000 0000 0000 000000
2014-12-07 03:58:33,0.16,4.70,0.00,18.40,23.17,26.49,4.84,27.90,1027.87,2044.99,1944.17,2266.57,2456.51,349.70,356.73,22.03,0000 0000 0000 0000 000000
2014-12-07 04:03:34,0.09,4.71,0.00,18.51,23.17,26.48,4.99,27.94,1027.86,2044.99,1943.47,2265.99,2455.82,350.11,357.05,22.06,0000 0000 0000 0000 000000
2014-12-07 04:08:35,0.16,4.71,0.00,18.43,23.17,26.47,4.94,27.98,1027.85,2045.00,1942.64,2265.25,2455.02,350.50,357.32,22.09,0000 0000 0000 0000 000000
2014-12-07 04:13:36,0.14,4.72,0.00,18.46,23.17,26.48,4.94,27.93,1027.84,2045.00,1941.76,2264.66,2454.13,349.78,356.76,22.12,0000 0000 0000 0000 000000
2014-12-07 04:18:38,0.12,4.72,0.00,18.46,23.17,26.49,4.84,27.89,1027.82,2045.00,1940.78,2263.99,2453.39,349.71,356.88,22.15,0000 0000 0000 0000 000000
2014-12-07 04:23:39,0.12,4.73,0.00,18.45,23.17,26.47,4.95,27.99,1027.58,2045.00,1939.98,2263.22,2452.93,350.00,356.92,22.18,0000 0000 0000 0000 000000
2014-12-07 04:28:40,0.15,4.73,0.00,18.51,23.17,26.46,4.95,27.98,1027.39,2045.00,1939.10,2262.71,2452.10,350.12,356.91,22.20,0000 0000 0000 0000 000000
2014-12-07 04:33:42,0.13,4.73,0.00,18.40,23.17,26.46,4.94,27.89,1027.37,2045.00,1938.33,2262.01,2451.27,349.78,356.86,22.23,0000 0000 0000 0000 000000
2014-12-07 04:38:43,0.17,4.74,0.00,18.50,23.17,26.45,4.91,27.97,1027.37,2045.00,1937.45,2261.26,2450.53,349.93,356.71,22.26,0000 0000 0000 0000 000000
2014-12-07 04:43:44,0.09,4.74,0.00,18.47,23.17,26.47,4.88,27.99,1027.37,2045.00,1936.57,2260.77,2449.97,349.79,356.60,22.29,0000 0000 0000 0000 000000
2014-12-07 04:48:45,0.12,4.75,0.00,18.46,23.16,26.45,4.98,27.88,1027.38,2045.00,1935.84,2260.03,2449.14,350.08,357.00,22.32,0000 0000 0000 0000 000000
2014-12-07 04:53:47,0.16,4.75,0.00,18.51,23.17,26.44,4.98,27.98,1027.37,2045.00,1934.97,2259.39,2448.29,350.24,357.16,22.35,0000 0000 0000 0000 000000
2014-12-07 04:58:47,0.10,4.75,0.00,18.43,23.17,26.42,4.87,27.99,1027.36,2045.00,1934.07,2258.83,2447.71,349.80,356.76,22.38,0000 0000 0000 0000 000000
2014-12-07 05:03:49,0.16,4.76,0.00,18.49,23.17,26.43,4.88,27.96,1027.37,2045.00,1933.12,2258.03,2446.84,349.81,356.55,22.41,0000 0000 0000 0000 000000
2014-12-07 05:08:50,0.17,4.76,0.00,18.46,23.16,26.44,4.96,27.94,1027.36,2045.00,1932.15,2257.25,2446.02,350.07,356.76,22.44,0000 0000 0000 0000 000000
2014-12-07 05:13:51,0.18,4.77,0.00,18.40,23.16,26.41,4.91,27.93,1027.47,2045.00,1931.08,2256.47,2445.15,350.03,356.81,22.47,0000 0000 0000 0000 000000
2014-12-07 05:18:52,0.16,4.77,0.00,18.51,23.16,26.41,4.92,27.91,1027.38,2045.00,1929.99,2255.70,2444.20,349.44,356.25,22.50,0000 0000 0000 0000 000000
2014-12-07 05:23:53,0.15,4.78,0.00,18.42,23.15,26.43,4.93,27.79,1027.36,2045.00,1928.88,2254.95,2443.57,349.83,356.65,22.53,0000 0000 0000 0000 000000
2014-12-07 05:28:54,0.18,4.78,0.00,18.50,23.15,26.46,4.92,27.78,1027.36,2045.00,1927.84,2254.08,2442.61,349.89,356.67,22.56,0000 0000 0000 0000 000000
2014-12-07 05:33:55,0.19,4.79,0.00,18.48,23.15,26.43,4.99,27.98,1027.36,2045.00,1926.78,2253.25,2441.65,350.35,357.24,22.58,0000 0000 0000 0000 000000
2014-12-07 05:38:57,0.20,4.79,0.00,18.42,23.15,26.44,4.93,27.95,1027.36,2045.00,1925.54,2252.45,2440.71,349.98,356.95,22.61,0000 0000 0000 0000 000000
2014-12-07 05:43:58,0.16,4.80,0.00,18.51,23.15,26.42,4.87,27.90,1027.36,2045.00,1924.44,2251.63,2439.86,349.67,356.52,22.64,0000 0000 0000 0000 000000
2014-12-07 05:48:59,0.19,4.80,0.00,18.45,23.14,26.43,4.94,27.87,1027.35,2045.00,1923.19,2250.69,2438.84,349.98,356.89,22.67,0000 0000 0000 0000 000000
2014-12-07 05:54:00,0.14,4.81,0.00,18.50,23.14,26.46,4.91,27.98,1027.34,2045.00,1922.05,2249.89,2437.94,350.06,356.90,22.70,0000 0000 0000 0000 000000
2014-12-07 05:59:02,0.18,4.81,0.00,18.47,23.14,26.46,4.93,27.81,1027.33,2045.00,1920.98,2249.04,2437.03,349.53,356.29,22.73,0000 0000 0000 0000 000000
2014-12-07 06:04:03,0.18,4.82,0.00,18.40,23.14,26.44,4.99,27.98,1027.28,2045.00,1919.95,2248.18,2436.12,350.67,357.55,22.76,0000 0000 0000 0000 000000
2014-12-07 06:09:04,0.19,4.82,0.00,18.49,23.14,26.47,4.95,27.88,1027.32,2045.00,1918.84,2247.38,2435.21,350.10,356.84,22.79,0000 0000 0000 0000 000000
2014-12-07 06:14:05,0.18,4.83,0.00,18.39,23.14,26.43,4.91,27.87,1027.35,2045.00,1917.76,2246.60,2434.33,349.55,356.34,22.82,0000 0000 0000 0000 000000
2014-12-07 06:19:06,0.18,4.84,0.00,18.47,23.14,26.41,4.92,27.80,1027.35,2045.00,1916.62,2245.76,2433.43,350.41,356.97,22.85,0000 0000 0000 0000 000000
2014-12-07 06:24:08,0.15,4.84,0.00,18.50,23.14,26.43,4.86,27.82,1027.36,2045.00,1915.49,2245.00,2432.71,349.67,356.50,22.88,0000 0000 0000 0000 000000
2014-12-07 06:29:09,0.16,4.84,0.00,18.41,23.13,26.45,4.92,27.97,1027.36,2045.00,1914.54,2244.19,2431.96,350.24,357.04,22.91,0000 0000 0000 0000 000000
2014-12-07 06:34:10,0.15,4.85,0.00,18.49,23.13,26.43,4.93,27.85,1027.37,2045.01,1913.68,2243.50,2431.02,349.80,356.62,22.94,0000 0000 0000 0000 000000
2014-12-07 06:39:11,0.19,4.85,0.00,18.43,23.13,26.42,5.00,28.15,1027.38,2045.00,1912.65,2242.64,2429.98,350.01,356.82,22.97,0000 0000 0000 0000 000000
2014-12-07 06:44:13,0.12,4.86,0.00,18.41,23.12,26.44,4.95,27.91,1027.37,2045.01,1911.73,2241.94,2429.06,349.55,356.59,22.99,0000 0000 0000 0000 000000
2014-12-07 06:49:14,0.20,4.87,0.00,18.52,23.13,26.40,4.89,27.79,1027.37,2045.00,1910.55,2241.07,2428.23,350.25,357.09,23.02,0000 0000 0000 0000 000000
2014-12-07 06:54:16,0.18,4.87,0.00,18.38,23.12,26.43,4.94,27.94,1027.36,2045.00,1909.36,2240.14,2427.27,350.13,357.13,23.05,0000 0000 0000 0000 000000
2014-12-07 06:59:17,0.19,4.88,0.00,18.46,23.12,26.41,4.90,27.73,1027.37,2045.00,1908.12,2239.30,2426.39,349.53,356.36,23.08,0000 0000 0000 0000 000000
2014-12-07 07:04:18,0.16,4.88,0.00,18.46,23.12,26.43,4.85,27.95,1027.37,2045.00,1906.92,2238.66,2425.61,350.01,356.97,23.11,0000 0000 0000 0000 000000
2014-12-07 07:09:20,0.11,4.89,0.00,18.42,23.12,26.44,4.92,28.02,1027.43,2045.00,1906.00,2237.97,2424.78,349.70,356.63,23.14,0000 0000 0000 0000 000000
2014-12-07 07:14:21,0.16,4.89,0.00,18.51,23.12,26.44,4.91,28.02,1027.37,2045.00,1905.05,2237.14,2424.02,349.97,356.61,23.17,0000 0000 0000 0000 000000
2014-12-07 07:19:22,0.16,4.89,0.00,18.41,23.12,26.43,4.99,27.93,1027.37,2045.00,1904.09,2236.60,2423.37,350.21,357.00,23.20,0000 0000 0000 0000 000000
2014-12-07 07:24:23,0.11,4.90,0.00,18.49,23.12,26.39,4.89,27.95,1027.37,2045.02,1903.19,2236.00,2422.83,350.93,357.77,23.23,0000 0000 0000 0000 000000
2014-12-07 07:29:25,0.17,4.90,0.00,18.46,23.12,26.40,4.88,27.87,1027.37,2045.03,1902.34,2235.23,2422.04,349.52,356.34,23.26,0000 0000 0000 0000 000000
2014-12-07 07:34:26,0.15,4.91,0.00,18.41,23.12,26.40,4.94,27.88,1027.37,2045.01,1901.47,2234.67,2421.22,350.06,357.05,23.29,0000 0000 0000 0000 000000
2014-12-07 07:39:27,0.12,4.91,0.00,18.49,23.12,26.42,4.87,27.98,1027.38,2045.02,1900.50,2234.00,2420.74,349.79,356.52,23.32,0000 0000 0000 0000 000000
2014-12-07 07:44:28,0.13,4.92,0.00,18.41,23.12,26.41,4.90,27.82,1027.39,2045.02,1899.88,2233.24,2419.83,349.74,356.76,23.35,0000 0000 0000 0000 000000
2014-12-07 07:49:30,0.15,4.92,0.00,18.45,23.12,26.41,4.90,27.81,1027.37,2045.01,1899.01,2232.61,2418.97,349.44,356.33,23.38,0000 0000 0000 0000 000000
2014-12-07 07:54:31,0.13,4.92,0.00,18.51,23.12,26.44,4.97,27.88,1027.37,2045.02,1898.16,2231.98,2418.10,349.93,356.90,23.41,0000 0000 0000 0000 000000
2014-12-07 07:59:33,0.17,4.93,0.00,18.40,23.12,26.41,4.90,27.98,1027.40,2045.01,1897.12,2231.16,2417.37,349.74,356.65,23.43,0000 0000 0000 0000 000000
2014-12-07 08:04:34,0.15,4.93,0.00,18.47,23.12,26.43,4.99,27.93,1027.53,2045.01,1896.29,2230.62,2416.64,350.06,356.91,23.46,0000 0000 0000 0000 000000
2014-12-07 08:09:35,0.09,4.94,0.00,18.43,23.12,26.42,4.92,27.94,1027.54,2045.01,1895.57,2229.95,2415.93,349.95,356.78,23.49,0000 0000 0000 0000 000000
2014-12-07 08:14:36,0.17,4.94,0.00,18.42,23.13,26.45,4.96,27.98,1027.48,2045.00,1894.58,2229.14,2415.11,349.81,357.00,23.52,0000 0000 0000 0000 000000
2014-12-07 08:19:38,0.17,4.95,0.00,18.51,23.13,26.43,4.99,27.94,1027.63,2045.00,1893.62,2228.48,2414.45,350.06,356.73,23.55,0000 0000 0000 0000 000000
2014-12-07 08:24:39,0.07,4.95,0.00,18.47,23.14,26.44,4.96,27.95,1027.69,2045.01,1892.87,2227.97,2413.80,349.79,356.81,23.58,0000 0000 0000 0000 000000
2014-12-07 08:29:40,0.16,4.95,0.00,18.53,23.14,26.43,4.93,27.79,1027.60,2045.00,1891.95,2227.17,2413.04,349.71,356.75,23.61,0000 0000 0000 0000 000000
2014-12-07 08:34:41,0.17,4.96,0.00,18.54,23.14,26.42,4.94,27.90,1027.45,2045.00,1891.05,2226.61,2412.28,349.81,356.86,23.64,0000 0000 0000 0000 000000
2014-12-07 08:39:42,0.13,4.96,0.00,18.45,23.14,26.41,4.94,27.93,1027.37,2045.00,1890.17,2225.94,2411.48,349.84,356.70,23.67,0000 0000 0000 0000 000000
2014-12-07 08:44:44,0.15,4.97,0.00,18.53,23.14,26.42,4.94,27.90,1027.36,2045.00,1889.42,2225.10,2410.78,350.33,357.08,23.70,0000 0000 0000 0000 000000
2014-12-07 08:49:45,0.14,4.97,0.00,18.44,23.14,26.41,4.89,27.92,1027.36,2045.00,1888.54,2224.63,2410.03,349.07,355.90,23.73,0000 0000 0000 0000 000000
2014-12-07 08:54:46,0.13,4.98,0.00,18.48,23.14,26.38,4.94,27.79,1027.36,2045.00,1887.63,2223.99,2409.26,349.86,356.77,23.76,0000 0000 0000 0000 000000
2014-12-07 08:59:48,0.17,4.98,0.00,18.53,23.14,26.40,4.87,27.87,1027.35,2045.00,1886.64,2223.22,2408.68,349.38,356.37,23.79,0000 0000 0000 0000 000000
2014-12-07 09:04:49,0.14,4.98,0.00,18.38,23.14,26.40,5.04,27.98,1027.34,2045.00,1885.73,2222.56,2408.01,350.21,357.10,23.81,0000 0000 0000 0000 000000
2014-12-07 09:09:50,0.10,4.99,0.00,18.49,23.14,26.46,4.97,27.84,1027.25,2045.00,1884.89,2221.99,2407.21,349.95,356.92,23.84,0000 0000 0000 0000 000000
2014-12-07 09:14:52,0.16,4.99,0.00,18.47,23.14,26.45,4.98,28.00,1027.33,2045.00,1883.98,2221.24,2406.62,349.95,357.01,23.87,0000 0000 0000 0000 000000
2014-12-07 09:19:53,0.13,5.00,0.00,18.41,23.15,26.42,4.85,27.95,1027.32,2045.00,1883.12,2220.68,2405.87,350.02,356.90,23.90,0000 0000 0000 0000 000000
2014-12-07 09:24:54,0.13,5.00,0.00,18.54,23.15,26.43,4.97,27.96,1027.32,2045.00,1882.26,2219.99,2405.04,350.04,356.76,23.93,0000 0000 0000 0000 000000
2014-12-07 09:29:55,0.17,5.00,0.00,18.48,23.15,26.44,4.97,28.00,1027.19,2045.00,1881.52,2219.24,2404.24,350.53,357.33,23.96,0000 0000 0000 0000 000000
2014-12-07 09:34:56,0.11,5.01,0.00,18.49,23.15,26.44,4.96,28.00,1027.27,2045.00,1880.74,2218.78,2403.64,350.50,357.35,23.99,0000 0000 0000 0000 000000
2014-12-07 09:39:58,0.13,5.01,0.00,18.55,23.15,26.43,4.93,27.90,1027.15,2045.00,1879.79,2218.03,2402.99,350.32,356.98,24.02,0000 0000 0000 0000 000000
2014-12-07 09:44:59,0.14,5.02,0.00,18.48,23.15,26.41,5.02,27.93,1027.01,2045.00,1879.04,2217.45,2402.22,350.49,357.21,24.05,0000 0000 0000 0000 000000
2014-12-07 09:50:00,0.12,5.02,0.00,18.55,23.16,26.43,4.95,27.95,1026.99,2045.00,1878.30,2216.96,2401.54,349.87,356.48,24.08,0000 0000 0000 0000 000000
2014-12-07 09:55:02,0.15,5.03,0.00,18.54,23.17,26.45,4.94,27.99,1026.90,2044.99,1877.35,2216.13,2400.91,349.85,356.32,24.11,0000 0000 0000 0000 000000
2014-12-07 10:00:03,0.15,5.03,0.00,18.49,23.17,26.44,4.93,27.91,1026.88,2044.99,1876.48,2215.61,2400.11,350.04,356.55,24.14,0000 0000 0000 0000 000000
2014-12-07 10:05:04,0.10,5.03,0.00,18.56,23.17,26.44,5.02,27.82,1026.88,2044.99,1875.77,2214.98,2399.41,349.97,356.52,24.17,0000 0000 0000 0000 000000
2014-12-07 10:10:06,0.16,5.04,0.00,18.43,23.17,26.46,5.01,27.98,1026.89,2044.99,1874.93,2214.16,2398.62,350.58,357.24,24.20,0000 0000 0000 0000 000000
2014-12-07 10:15:07,0.11,5.04,0.00,18.50,23.17,26.45,4.89,28.02,1026.88,2044.99,1874.05,2213.72,2397.99,349.83,356.53,24.22,0000 0000 0000 0000 000000
2014-12-07 10:20:08,0.15,5.05,0.00,18.55,23.17,26.43,4.81,27.82,1026.88,2044.99,1873.16,2213.02,2397.16,349.71,356.18,24.25,0000 0000 0000 0000 000000
2014-12-07 10:25:09,0.17,5.05,0.00,18.45,23.17,26.44,4.92,27.85,1026.88,2044.99,1872.24,2212.25,2396.65,349.87,356.38,24.28,0000 0000 0000 0000 000000
2014-12-07 10:30:11,0.11,5.05,0.00,18.54,23.17,26.42,4.93,27.96,1026.87,2044.99,1871.42,2211.76,2395.93,350.19,356.56,24.31,0000 0000 0000 0000 000000
2014-12-07 10:35:12,0.14,5.06,0.00,18.50,23.17,26.44,5.02,27.87,1026.87,2044.99,1870.65,2211.04,2395.07,350.21,356.70,24.34,0000 0000 0000 0000 000000
2014-12-07 10:40:13,0.19,5.06,0.00,18.48,23.17,26.44,5.00,28.09,1026.86,2044.99,1869.65,2210.28,2394.32,349.94,356.46,24.37,0000 0000 0000 0000 000000
2014-12-07 10:45:15,0.07,5.07,0.00,18.56,23.17,26.44,4.92,27.81,1026.87,2044.99,1868.97,2209.81,2393.71,350.07,356.73,24.40,0000 0000 0000 0000 000000
2014-12-07 10:50:16,0.14,5.07,0.00,18.41,23.17,26.46,4.95,27.93,1026.85,2044.99,1868.11,2209.04,2393.02,350.08,356.97,24.43,0000 0000 0000 0000 000000
2014-12-07 10:55:17,0.17,5.08,0.00,18.51,23.17,26.46,4.96,27.85,1026.82,2044.99,1867.30,2208.54,2392.34,349.72,356.27,24.46,0000 0000 0000 0000 000000
2014-12-07 11:00:18,0.11,5.08,0.00,18.56,23.17,26.43,4.92,27.95,1026.85,2044.99,1866.46,2207.93,2391.75,350.88,357.14,24.49,0000 0000 0000 0000 000000
2014-12-07 11:05:19,0.15,5.08,0.00,18.49,23.17,26.44,4.95,27.91,1026.76,2044.99,1865.66,2207.11,2390.92,349.63,356.22,24.52,0000 0000 0000 0000 000000
2014-12-07 11:10:21,0.13,5.09,0.00,18.58,23.17,26.43,4.99,27.82,1026.80,2044.98,1864.93,2206.54,2390.07,350.14,356.81,24.55,0000 0000 0000 0000 000000
2014-12-07 11:15:22,0.11,5.09,0.00,18.52,23.17,26.44,4.90,27.93,1026.84,2044.99,1864.09,2206.01,2389.51,350.17,356.57,24.58,0000 0000 0000 0000 000000
2014-12-07 11:20:23,0.15,5.10,0.00,18.56,23.17,26.43,4.90,27.83,1026.70,2044.99,1863.47,2205.35,2388.89,349.71,356.18,24.61,0000 0000 0000 0000 000000
2014-12-07 11:25:24,0.11,5.10,0.00,18.58,23.17,26.45,4.90,27.89,1026.50,2044.99,1862.68,2204.87,2388.07,349.66,356.12,24.64,0000 0000 0000 0000 000000
2014-12-07 11:30:25,0.13,5.10,0.00,18.50,23.17,26.44,4.93,27.95,1026.56,2044.99,1861.94,2204.08,2387.52,349.77,356.30,24.66,0000 0000 0000 0000 000000
2014-12-07 11:35:26,0.12,5.11,0.00,18.59,23.17,26.46,4.93,27.96,1026.42,2044.99,1861.08,2203.70,2386.95,349.93,356.06,24.69,0000 0000 0000 0000 000000
2014-12-07 11:40:28,0.15,5.11,0.00,18.46,23.17,26.46,4.88,27.75,1026.51,2044.99,1860.16,2202.97,2386.10,350.05,356.54,24.72,0000 0000 0000 0000 000000
2014-12-07 11:45:29,0.16,5.12,0.00,18.55,23.17,26.44,4.95,27.97,1026.73,2044.99,1859.32,2202.18,2385.54,349.85,356.46,24.75,0000 0000 0000 0000 000000
2014-12-07 11:50:30,0.12,5.12,0.00,18.59,23.18,26.43,4.96,27.82,1026.59,2044.99,1858.54,2201.70,2384.95,349.74,356.09,24.78,0000 0000 0000 0000 000000
2014-12-07 11:55:31,0.14,5.12,0.00,18.55,23.18,26.47,5.02,27.94,1026.41,2044.99,1857.67,2201.01,2384.11,350.47,356.70,24.81,0000 0000 0000 0000 000000
2014-12-07 12:00:33,0.14,5.13,0.00,18.61,23.19,26.48,4.94,27.81,1026.40,2044.98,1856.90,2200.28,2383.52,350.06,356.57,24.84,0000 0000 0000 0000 000000
2014-12-07 12:05:34,0.09,5.13,0.00,18.50,23.19,26.47,4.86,27.79,1026.38,2044.98,1856.06,2199.85,2382.94,349.71,356.15,24.87,0000 0000 0000 0000 000000
2014-12-07 12:10:35,0.16,5.14,0.00,18.44,23.19,26.50,4.87,27.93,1026.38,2044.98,1855.33,2199.08,2382.13,349.33,355.94,24.90,0000 0000 0000 0000 000000
2014-12-07 12:15:37,0.08,5.14,0.00,18.55,23.19,26.48,4.86,27.92,1026.38,2044.99,1854.94,2198.71,2381.63,349.74,356.23,24.93,0000 0000 0000 0000 000000
2014-12-07 12:20:38,0.12,5.14,0.00,18.46,23.19,26.45,4.90,27.90,1026.38,2044.98,1854.08,2198.03,2381.01,349.75,356.09,24.96,0000 0000 0000 0000 000000
2014-12-07 12:25:39,0.16,5.15,0.00,18.54,23.19,26.46,4.90,27.82,1026.38,2044.99,1853.46,2197.53,2380.38,349.66,356.07,24.99,0000 0000 0000 0000 000000
2014-12-07 12:30:40,0.07,5.15,0.00,18.59,23.19,26.47,4.98,27.90,1026.38,2044.98,1852.79,2196.99,2379.79,350.34,356.35,25.02,0000 0000 0000 0000 000000
2014-12-07 12:35:41,0.15,5.15,0.00,18.49,23.19,26.49,4.85,27.92,1026.39,2044.98,1851.98,2196.32,2379.03,349.52,356.02,25.05,0000 0000 0000 0000 000000
2014-12-07 12:40:42,0.15,5.16,0.00,18.54,23.19,26.50,4.96,27.94,1026.43,2044.96,1851.08,2195.70,2378.32,350.15,356.30,25.07,0000 0000 0000 0000 000000
2014-12-07 12:45:44,0.13,5.16,0.00,18.58,23.19,26.46,4.95,27.82,1026.41,2044.98,1850.29,2195.02,2377.75,350.32,356.68,25.10,0000 0000 0000 0000 000000
2014-12-07 12:50:45,0.15,5.17,0.00,18.54,23.20,26.46,4.89,27.94,1026.41,2044.99,1849.59,2194.45,2377.02,350.44,356.69,25.13,0000 0000 0000 0000 000000
2014-12-07 12:55:46,0.09,5.17,0.00,18.58,23.20,26.47,4.90,27.93,1026.41,2044.98,1848.88,2193.95,2376.28,349.43,355.83,25.16,0000 0000 0000 0000 000000
2014-12-07 13:00:47,0.16,5.17,0.00,18.56,23.20,26.48,4.98,27.84,1026.39,2044.97,1848.05,2193.12,2375.68,350.17,356.55,25.19,0000 0000 0000 0000 000000